Regional Weather Roundup
Issued by NWS Northern Indiana

Home | Current Version | Previous Version | Text Only | Print | Product List | Glossary Off
Versions: 1 2 3 4 5 6 7 8 9 10 11 12 13 14 15 16 17 18 19 20 21 22 23 24 25 26 27 28 29 30 31 32 33 34 35 36 37 38 39 40 41 42 43 44 45 46 47 48 49 50

000
ASUS43 KIWX 230100
RWRIWX

KIWX WEATHER ROUNDUP
NATIONAL WEATHER SERVICE NORTHERN INDIANA
900 PM EDT FRI JUL 22 2016

NOTE: "FAIR" INDICATES FEW OR NO CLOUDS BELOW 12,000 FEET WITH NO
SIGNIFICANT WEATHER AND/OR OBSTRUCTIONS TO VISIBILITY.

* THESE STATIONS ARE NOT UNDER NWS QUALITY CONTROL. THEY ALSO MAY NOT
  REPORT WEATHER SUCH AS PRECIPITATION OR FOG.

INZ001>027-230200-
NORTHERN INDIANA

CITY           SKY/WX    TMP DP  RH WIND       PRES   REMARKS
GARY*          PTCLDY    84  81  89 CALM      29.98R HX  98
KNOX*          CLEAR     79  70  73 CALM      29.98S
SOUTH BEND     CLEAR     81  71  71 NW5       29.99S
ELKHART*       CLEAR     82  73  74 NW5       29.99S
GOSHEN         CLEAR     82  69  64 W7        29.99R
MONTICELLO*    MOCLDY    80  71  73 CALM      29.99R
ANGOLA*          N/A     84  81  89 CALM      29.98S HX  98
FORT WAYNE     PTCLDY    79  73  82 W5        29.98R
PERU/GRISSOM   CLEAR     81  73  77 W6        29.99R

$$
INZ028>050-230200-
CENTRAL INDIANA

CITY           SKY/WX    TMP DP  RH WIND       PRES   REMARKS
LAFAYETTE      CLEAR     81  74  79 NW3       29.99R
KOKOMO*        CLEAR     82  72  69 W5        30.00R
MUNCIE*        CLEAR     81  71  71 W5        30.00R
INDIANAPOLIS   PTCLDY    83  68  60 NW7       30.01R

$$
MIZ043>046-050>051-056>058-064>065-071>073-077>080-230200-
SOUTHWEST LOWER MICHIGAN

CITY           SKY/WX    TMP DP  RH WIND       PRES   REMARKS
BATTLE CREEK   CLEAR     78  71  79 W8        29.99R
BENTON HARBOR  CLEAR     79  68  69 CALM      29.98S
COLDWATER*     CLEAR     82  70  68 W3        29.98S
HOLLAND        CLEAR     75  69  81 W3        29.99R
GRAND RAPIDS   PTCLDY    81  68  64 W8        29.98R
KALAMAZOO      CLEAR     81  69  67 W5        29.98S
STURGIS*       CLEAR     81  69  68 NW5       29.98R
THREE RIVERS*  FAIR      82  69  64 W6        29.99R

$$
OHZ001>008-015>018-024>025-230200-
NORTHWEST OHIO

CITY           SKY/WX    TMP DP  RH WIND       PRES   REMARKS
DEFIANCE       CLEAR     87  72  60 CALM      29.96R
FINDLAY        PTCLDY    85  70  60 SW5       29.96R
TOLEDO EXPRESS CLEAR     85  73  67 W3        29.95R
TOLEDO METCALF CLEAR     86  72  62 NW6       29.95R
LIMA           CLEAR     83  73  72 SW6       29.99R

$$
AND FOR LAKE MICHIGAN COASTAL AND OPEN LAKE BUOY OBSERVATIONS

STATION/POSITION TEMP    WIND        PRES    VSBY  WAVE
                 AIR SEA DIR/SP/G                  HT/PER
                 (F)     (DEG/KT/KT) (MB)    (MI)  (FT/S)
CALUMET HARBOR    79                   N/A
MICHIGAN CITY     81      40/  2/  2   N/A
BURNS HARBOR      84      70/  4/  5 1015.2S
SAINT JOSEPH      85     220/  3/  3 1015.9S
SOUTH LAKE BUOY   76 75  190/  2/  2 1014.2          0
4 MI NW BRIDGMAN  78 76  160/  2/  2 1014.6S         1
MICHIGAN CITY     80 78   90/  2/  4   N/A           1

$$
&&




USA.gov is the U.S. government's official web portal to all federal, state and local government web resources and services.